Location: Newark
(35.2672°N, 80.7344°W)
Time: 07:46:30
(UTC+00:00)

Tiros 1 - Pass Details

Date: 21 January 2020
Orbit: 631 x 664 km, 48.4° (Epoch: 17 February)

Event Time Altitude Azimuth Distance (km) Brightness Sun altitude
Rises 19:06:42 0° 238° (WSW) 2,928 11.3 30.6°
Reaches altitude 10° 19:09:01 10° 241° (WSW) 2,027 10.7 30.4°
Maximum altitude 19:13:40 70° 325° (NW) 688 7.7 30.0°
Drops below altitude 10° 19:18:24 10° 49° (NE) 2,057 9.3 29.6°
Sets 19:20:47 0° 52° (NE) 2,976 10.1 29.3°
